Address 0x887c609fc76fb20a8b0161563224216909eb5b5d

Overview

Balance:
0.00032149622 MATIC
My Name Tag:
Not Available

Txn Hash Method
Block
From
To
Value [Txn Fee]
0x5ef247b32438225589f70ee4949c0e430def5654a8370095efcb2768013560f9Transfer263427842022-05-17 2:21:41199 days 16 hrs ago0x887c609fc76fb20a8b0161563224216909eb5b5dOUT0x87f70751d283d4d4b7cc16586e2e3afcf528ca7b8.249322 MATIC0.000178500428.50002
0xd86132942bc8733bbce9b307b42d411daced0bb5c4153583b75d509eac014875Transfer262659232022-05-09 8:44:27207 days 10 hrs ago0x887c609fc76fb20a8b0161563224216909eb5b5dOUT0x87f70751d283d4d4b7cc16586e2e3afcf528ca7b9.999821 MATIC0.000178501688.50008
0xb3e227247cb277a7a1b6bb7a7eebe6bf7e3c7bf83ea5d6fa65f27c25385a6238Transfer262282042022-05-06 13:58:37210 days 5 hrs ago0x887c609fc76fb20a8b0161563224216909eb5b5dOUT0x87f70751d283d4d4b7cc16586e2e3afcf528ca7b9.95 MATIC0.000178501688.50008
[ Download CSV Export 
Latest 25 internal transaction
Parent Txn Hash Block From To Value
0x4a978d21eaf33aee381563e15886c33b67c305bf73cbb189754a89bdd6a66e91263023022022-05-13 3:57:47203 days 15 hrs ago 0x7f092e65c688a509737fcd8d0998dd12208f52970x887c609fc76fb20a8b0161563224216909eb5b5d0.2 MATIC
0xac89bbe6d517128112d70d03169d6881b46c832f2374be57ec6f87a19b28faeb263012482022-05-13 1:49:45203 days 17 hrs ago 0x7f092e65c688a509737fcd8d0998dd12208f52970x887c609fc76fb20a8b0161563224216909eb5b5d0.2 MATIC
0x24a194db1e6bb0f5814320c7e7de113d5e39a4164a79b22f8c14da90ade5665b262999772022-05-12 23:16:15203 days 19 hrs ago 0x7f092e65c688a509737fcd8d0998dd12208f52970x887c609fc76fb20a8b0161563224216909eb5b5d0.2 MATIC
0x4c53950393e395cc80595c93253c2e9e161c8a05439399c9c086be017d704a21262963152022-05-12 15:02:17204 days 4 hrs ago 0x7f092e65c688a509737fcd8d0998dd12208f52970x887c609fc76fb20a8b0161563224216909eb5b5d0.2 MATIC
0x9833ea233122a26d9bc06b5b101389f4a6fff04b88769063452aefcfabe1f702262963062022-05-12 15:00:47204 days 4 hrs ago 0x7f092e65c688a509737fcd8d0998dd12208f52970x887c609fc76fb20a8b0161563224216909eb5b5d0.2 MATIC
0x3bdbbd236d2921bde54477ee5f4d63606fc44dded9a842e51a2392fb0ee87cf0262963032022-05-12 15:00:17204 days 4 hrs ago 0x7f092e65c688a509737fcd8d0998dd12208f52970x887c609fc76fb20a8b0161563224216909eb5b5d0.2 MATIC
0xc12d28b2e642aa60d58207603fe76f94065bbfcaeab12f18db9009c38b00b77f262962982022-05-12 14:59:27204 days 4 hrs ago 0x7f092e65c688a509737fcd8d0998dd12208f52970x887c609fc76fb20a8b0161563224216909eb5b5d0.2 MATIC
0x0a0dced9fcc9501acaa8654f809f95d64c04f21e4fe39c0e8579158307015393262962902022-05-12 14:58:07204 days 4 hrs ago 0x7f092e65c688a509737fcd8d0998dd12208f52970x887c609fc76fb20a8b0161563224216909eb5b5d0.2 MATIC
0x13aab439c6acfdae98fbfa2f30df6fed018f0989c2d56583c5e9f109b5fdcfbb262962862022-05-12 14:57:27204 days 4 hrs ago 0x7f092e65c688a509737fcd8d0998dd12208f52970x887c609fc76fb20a8b0161563224216909eb5b5d0.2 MATIC
0x2682c782f8d5e0c6bee816a6375257ca2f72d6c866260f600cc18b7b195ad513262955602022-05-12 13:06:56204 days 6 hrs ago 0x7f092e65c688a509737fcd8d0998dd12208f52970x887c609fc76fb20a8b0161563224216909eb5b5d0.2 MATIC
0x1e8d75ec01a715428d8a3e9daf5da5c16c2a2f8557256b50da7d41135e91080c262921552022-05-12 4:36:47204 days 14 hrs ago 0x7f092e65c688a509737fcd8d0998dd12208f52970x887c609fc76fb20a8b0161563224216909eb5b5d0.2 MATIC
0x16b9e19751ad2c1ef8fb725a255216b63938b0f6220d114e21f8a3c45b03f18e262912482022-05-12 2:21:43204 days 16 hrs ago 0x7f092e65c688a509737fcd8d0998dd12208f52970x887c609fc76fb20a8b0161563224216909eb5b5d0.2 MATIC
0x76957f204187145278b0fe88e8ca95e9e0d25402563ffb70cd5ca4c14d44a20f262900152022-05-11 23:38:34204 days 19 hrs ago 0x7f092e65c688a509737fcd8d0998dd12208f52970x887c609fc76fb20a8b0161563224216909eb5b5d0.2 MATIC
0xc01d56b56a04dd996a32b826f7d89d37b600803bc7c2e6e4aaf3dd2b4ad19377262896532022-05-11 22:54:08204 days 20 hrs ago 0x7f092e65c688a509737fcd8d0998dd12208f52970x887c609fc76fb20a8b0161563224216909eb5b5d0.2 MATIC
0x80713ed59a9cbb268870ab6ffa59ce8d78cf0a538b6c2e998d6264882331d4e5262892972022-05-11 22:05:23204 days 21 hrs ago 0x7f092e65c688a509737fcd8d0998dd12208f52970x887c609fc76fb20a8b0161563224216909eb5b5d0.2 MATIC
0x4e0e6fe5e87137f61f3209547908c6c3915448f8ee37050cfa3481a7e3721d47262889072022-05-11 21:16:17204 days 21 hrs ago 0x7f092e65c688a509737fcd8d0998dd12208f52970x887c609fc76fb20a8b0161563224216909eb5b5d0.2 MATIC
0x47604f826b4f80dc52834c27fda46c8cb47b4dcc89eb12842b1933248f1ab5b7262884012022-05-11 20:13:09204 days 22 hrs ago 0x7f092e65c688a509737fcd8d0998dd12208f52970x887c609fc76fb20a8b0161563224216909eb5b5d0.2 MATIC
0x369a32ad13e15a91940a93f419fe16562f2653513d5e14f5409fcff8ce79244d262879032022-05-11 19:06:01205 days 3 mins ago 0x7f092e65c688a509737fcd8d0998dd12208f52970x887c609fc76fb20a8b0161563224216909eb5b5d0.2 MATIC
0x4245940956a12345179141b58ebc0742808813463b489bb8cd9065e493c2e26b262873062022-05-11 17:47:42205 days 1 hr ago 0x7f092e65c688a509737fcd8d0998dd12208f52970x887c609fc76fb20a8b0161563224216909eb5b5d0.2 MATIC
0x2eee94b6d364feb8aebe279833bd99e63736207dd83036ddfb62b69542d72f20262866792022-05-11 16:29:42205 days 2 hrs ago 0x7f092e65c688a509737fcd8d0998dd12208f52970x887c609fc76fb20a8b0161563224216909eb5b5d0.2 MATIC
0x47dfdedb37e9659a9f35f506fa4ae251244dab2af075d2eb7b3207576daf260b262860022022-05-11 15:03:21205 days 4 hrs ago 0x7f092e65c688a509737fcd8d0998dd12208f52970x887c609fc76fb20a8b0161563224216909eb5b5d0.2 MATIC
0x743060118343d53f6404f7c04e03690697d815bd47e6c8cff94d3c97b7dcd098262852322022-05-11 13:21:29205 days 5 hrs ago 0x7f092e65c688a509737fcd8d0998dd12208f52970x887c609fc76fb20a8b0161563224216909eb5b5d0.2 MATIC
0xcaed90f14e3314d25eeb41587e371cba7617e619cc2ad6b97c1414601cc1be17262845892022-05-11 11:55:29205 days 7 hrs ago 0x7f092e65c688a509737fcd8d0998dd12208f52970x887c609fc76fb20a8b0161563224216909eb5b5d0.2 MATIC
0x7d79e62ede4e30edd1aab97a8ab8bf1044ec554f5cabcfb7063aea77efaaab69262837672022-05-11 9:48:16205 days 9 hrs ago 0x7f092e65c688a509737fcd8d0998dd12208f52970x887c609fc76fb20a8b0161563224216909eb5b5d0.2 MATIC
0xc3d9c722ac18daea047f85a842ee50dcf9df7b6a7d63f70f472a0423d3ecca6a262833912022-05-11 8:46:10205 days 10 hrs ago 0x7f092e65c688a509737fcd8d0998dd12208f52970x887c609fc76fb20a8b0161563224216909eb5b5d0.2 MATIC
[ Download CSV Export 
Loading

Contract Name:
0 MATIC

Compiler Version
0

Optimization Enabled:
0 MATIC

Other Settings:
-NA-
Block Transaction Gas Used Reward
Age Block Fee Address BC Fee Address Voting Power Jailed Incoming
Block Uncle Number Difficulty Gas Used Reward
Loading